| time (UTC) | temp F | wind direction | speed knots | gust knots | rain 1hr in | rain 24hr in | rain mn in | humidity % | barometer mb |
| 20260506151035 | 77 | 0 | 0.0 | 1.7 | 0.00 | 0.00 | 0.00 | 89 | 1012.3 |
| 20260506150531 | 77 | 66 | 0.9 | 1.7 | 0.00 | 0.00 | 0.00 | 90 | 1012.0 |
| 20260506150028 | 76 | 228 | 1.7 | 2.6 | 0.00 | 0.00 | 0.00 | 90 | 1011.9 |
| 20260506145525 | 76 | 188 | 0.0 | 2.6 | 0.00 | 0.00 | 0.00 | 90 | 1011.9 |
| 20260506145023 | 77 | 99 | 0.0 | 2.6 | 0.00 | 0.00 | 0.00 | 90 | 1011.6 |
| 20260506144519 | 77 | 117 | 1.7 | 1.7 | 0.00 | 0.00 | 0.00 | 90 | 1011.4 |
| 20260506144017 | 77 | 229 | 0.0 | 1.7 | 0.00 | 0.00 | 0.00 | 90 | 1011.8 |
| 20260506143514 | 76 | 148 | 1.7 | 3.5 | 0.00 | 0.00 | 0.00 | 90 | 1011.8 |
| 20260506143013 | 77 | 180 | 0.0 | 2.6 | 0.00 | 0.00 | 0.00 | 91 | 1011.7 |
| 20260506142510 | 76 | 245 | 3.5 | 4.3 | 0.00 | 0.00 | 0.00 | 91 | 1011.2 |
| 20260506142008 | 76 | 180 | 0.0 | 3.5 | 0.00 | 0.00 | 0.00 | 91 | 1010.9 |
| 20260506141505 | 76 | 209 | 1.7 | 4.3 | 0.00 | 0.00 | 0.00 | 91 | 1011.2 |
| 20260506141004 | 75 | 166 | 1.7 | 3.5 | 0.00 | 0.00 | 0.00 | 92 | 1011.6 |
| 20260506140500 | 75 | 132 | 3.5 | 3.5 | 0.00 | 0.00 | 0.00 | 92 | 1011.5 |
| 20260506135957 | 75 | 229 | 4.3 | 4.3 | 0.00 | 0.00 | 0.00 | 92 | 1011.7 |
| 20260506135454 | 75 | 263 | 0.9 | 2.6 | 0.00 | 0.00 | 0.00 | 93 | 1011.7 |
| 20260506134950 | 75 | 202 | 1.7 | 2.6 | 0.00 | 0.00 | 0.00 | 93 | 1011.2 |
| 20260506134446 | 75 | 111 | 0.0 | 2.6 | 0.00 | 0.00 | 0.00 | 93 | 1010.5 |
| 20260506133943 | 75 | 246 | 0.0 | 3.5 | 0.00 | 0.00 | 0.00 | 94 | 1010.7 |
| 20260506133440 | 75 | 185 | 0.9 | 2.6 | 0.00 | 0.00 | 0.00 | 94 | 1010.6 |
| 20260506132937 | 75 | 134 | 3.5 | 3.5 | 0.00 | 0.00 | 0.00 | 94 | 1010.7 |
| 20260506132434 | 74 | 245 | 0.0 | 2.6 | 0.00 | 0.00 | 0.00 | 94 | 1010.6 |
| 20260506131932 | 74 | 162 | 1.7 | 3.5 | 0.00 | 0.00 | 0.00 | 94 | 1010.6 |
| 20260506131428 | 74 | 237 | 1.7 | 1.7 | 0.00 | 0.00 | 0.00 | 94 | 1010.6 |
| 20260506130925 | 74 | 180 | 0.0 | 2.6 | 0.00 | 0.00 | 0.00 | 94 | 1010.6 |
| 20260506130421 | 74 | 81 | 0.0 | 3.5 | 0.00 | 0.00 | 0.00 | 94 | 1010.4 |
| 20260506125920 | 74 | 245 | 1.7 | 3.5 | 0.00 | 0.00 | 0.00 | 94 | 1010.4 |
| 20260506125418 | 74 | 124 | 0.0 | 3.5 | 0.00 | 0.00 | 0.00 | 94 | 1010.3 |
| 20260506124916 | 74 | 270 | 0.0 | 0.9 | 0.00 | 0.00 | 0.00 | 94 | 1010.2 |
| 20260506124413 | 74 | 84 | 2.6 | 2.6 | 0.00 | 0.00 | 0.00 | 95 | 1010.4 |
| 20260506123911 | 73 | 117 | 2.6 | 3.5 | 0.00 | 0.00 | 0.00 | 94 | 1010.3 |
| 20260506123408 | 74 | 74 | 0.0 | 1.7 | 0.00 | 0.00 | 0.00 | 94 | 1010.2 |
| 20260506122906 | 74 | 166 | 0.0 | 0.9 | 0.00 | 0.00 | 0.00 | 94 | 1010.4 |
| 20260506122402 | 74 | 120 | 0.0 | 1.7 | 0.00 | 0.00 | 0.00 | 94 | 1010.3 |
| 20260506121901 | 73 | 81 | 0.0 | 1.7 | 0.00 | 0.00 | 0.00 | 94 | 1010.4 |
| 20260506121357 | 74 | 66 | 0.0 | 0.9 | 0.00 | 0.00 | 0.00 | 94 | 1010.4 |
| 20260506120854 | 74 | 195 | 0.0 | 0.0 | 0.00 | 0.00 | 0.00 | 94 | 1010.5 |
| 20260506120352 | 74 | 157 | 0.0 | 0.0 | 0.00 | 0.00 | 0.00 | 94 | 1010.5 |
| 20260506115849 | 74 | 157 | 0.0 | 0.0 | 0.00 | 0.00 | 0.00 | 94 | 1010.2 |
| 20260506115347 | 74 | 99 | 0.0 | 0.0 | 0.00 | 0.00 | 0.00 | 94 | 1010.0 |
| 20260506114845 | 74 | 180 | 0.0 | 0.9 | 0.00 | 0.00 | 0.00 | 94 | 1010.2 |
| 20260506114342 | 74 | 97 | 0.0 | 0.0 | 0.00 | 0.00 | 0.00 | 94 | 1010.2 |
| 20260506113841 | 74 | 123 | 1.7 | 1.7 | 0.00 | 0.00 | 0.00 | 94 | 1010.3 |
| 20260506113338 | 74 | 106 | 0.0 | 0.9 | 0.00 | 0.00 | 0.00 | 94 | 1010.1 |
| 20260506112834 | 74 | 99 | 0.0 | 0.9 | 0.00 | 0.00 | 0.00 | 93 | 1010.2 |
| 20260506112332 | 74 | 270 | 0.0 | 0.0 | 0.00 | 0.00 | 0.00 | 93 | 1010.1 |
| 20260506111829 | 74 | 180 | 0.0 | 0.0 | 0.00 | 0.00 | 0.00 | 93 | 1010.2 |
| 20260506111327 | 74 | 175 | 0.0 | 2.6 | 0.00 | 0.00 | 0.00 | 93 | 1010.0 |
| 20260506110824 | 74 | 172 | 0.0 | 1.7 | 0.00 | 0.00 | 0.00 | 93 | 1010.2 |
| 20260506110321 | 74 | 225 | 0.0 | 1.7 | 0.00 | 0.00 | 0.00 | 93 | 1010.2 |
| 20260506105818 | 74 | 195 | 0.0 | 0.9 | 0.00 | 0.00 | 0.00 | 93 | 1009.9 |
| 20260506105315 | 74 | 188 | 0.0 | 2.6 | 0.00 | 0.00 | 0.00 | 93 | 1010.1 |
| 20260506104812 | 74 | 270 | 0.0 | 0.0 | 0.00 | 0.00 | 0.00 | 93 | 1009.9 |
| 20260506104310 | 74 | 261 | 0.0 | 0.0 | 0.00 | 0.00 | 0.00 | 93 | 1009.9 |
| 20260506103807 | 74 | 186 | 0.0 | 3.5 | 0.00 | 0.00 | 0.00 | 93 | 1009.8 |
| 20260506103305 | 74 | 222 | 2.6 | 4.3 | 0.00 | 0.00 | 0.00 | 93 | 1009.7 |
| 20260506102802 | 74 | 215 | 0.9 | 5.2 | 0.00 | 0.00 | 0.00 | 94 | 1009.4 |
| 20260506102300 | 74 | 173 | 2.6 | 6.1 | 0.00 | 0.00 | 0.00 | 93 | 1009.7 |
| 20260506101757 | 74 | 135 | 0.0 | 3.5 | 0.00 | 0.00 | 0.00 | 93 | 1009.4 |
| 20260506101253 | 74 | 180 | 0.0 | 7.0 | 0.00 | 0.00 | 0.00 | 93 | 1009.7 |
| 20260506100751 | 74 | 97 | 0.9 | 7.0 | 0.00 | 0.00 | 0.00 | 93 | 1009.6 |
| 20260506100249 | 74 | 221 | 1.7 | 5.2 | 0.00 | 0.00 | 0.00 | 93 | 1009.5 |
| 20260506095747 | 74 | 246 | 0.0 | 3.5 | 0.00 | 0.00 | 0.00 | 93 | 1009.6 |
| 20260506095244 | 74 | 206 | 1.7 | 6.1 | 0.00 | 0.00 | 0.00 | 93 | 1009.4 |
| 20260506094740 | 74 | 218 | 2.6 | 4.3 | 0.00 | 0.00 | 0.00 | 93 | 1009.3 |
| 20260506094239 | 74 | 270 | 4.3 | 4.3 | 0.00 | 0.00 | 0.00 | 93 | 1009.5 |
| 20260506093737 | 74 | 227 | 6.1 | 7.0 | 0.00 | 0.00 | 0.00 | 93 | 1009.4 |
| 20260506093234 | 74 | 128 | 0.0 | 4.3 | 0.00 | 0.00 | 0.00 | 93 | 1009.4 |
| 20260506092732 | 74 | 156 | 4.3 | 8.7 | 0.00 | 0.00 | 0.00 | 93 | 1009.4 |
| 20260506092229 | 74 | 190 | 1.7 | 6.1 | 0.00 | 0.00 | 0.00 | 93 | 1009.2 |
| 20260506091726 | 74 | 229 | 3.5 | 7.8 | 0.00 | 0.00 | 0.00 | 93 | 1009.1 |
| 20260506091224 | 74 | 180 | 0.0 | 6.1 | 0.00 | 0.00 | 0.00 | 93 | 1009.1 |
| 20260506090722 | 74 | 222 | 0.0 | 7.8 | 0.00 | 0.00 | 0.00 | 93 | 1009.1 |
| 20260506090218 | 74 | 217 | 1.7 | 3.5 | 0.00 | 0.00 | 0.00 | 93 | 1009.0 |
| 20260506085715 | 74 | 254 | 1.7 | 7.0 | 0.00 | 0.00 | 0.00 | 93 | 1008.9 |
| 20260506085211 | 74 | 170 | 2.6 | 8.7 | 0.00 | 0.00 | 0.00 | 93 | 1008.8 |
| 20260506084708 | 74 | 241 | 2.6 | 7.8 | 0.00 | 0.00 | 0.00 | 93 | 1009.1 |
| 20260506084204 | 74 | 243 | 5.2 | 6.1 | 0.00 | 0.00 | 0.00 | 93 | 1009.0 |
| 20260506083701 | 74 | 162 | 0.9 | 7.0 | 0.00 | 0.00 | 0.00 | 94 | 1009.2 |
| 20260506083159 | 75 | 245 | 1.7 | 6.1 | 0.00 | 0.00 | 0.00 | 94 | 1009.0 |
| 20260506082656 | 74 | 180 | 3.5 | 7.0 | 0.00 | 0.00 | 0.00 | 93 | 1009.1 |
| 20260506082156 | 74 | 135 | 5.2 | 5.2 | 0.00 | 0.00 | 0.00 | 93 | 1009.0 |
| 20260506081655 | 75 | 185 | 2.6 | 5.2 | 0.00 | 0.00 | 0.00 | 93 | 1009.3 |
| 20260506081152 | 74 | 180 | 0.0 | 9.6 | 0.00 | 0.00 | 0.00 | 93 | 1009.1 |
| 20260506080650 | 75 | 229 | 7.8 | 8.7 | 0.00 | 0.00 | 0.00 | 93 | 1009.2 |
| 20260506080146 | 75 | 198 | 0.0 | 6.1 | 0.00 | 0.00 | 0.00 | 93 | 1009.2 |
| 20260506073130 | 75 | 99 | 0.0 | 7.0 | 0.00 | 0.00 | 0.00 | 92 | 1009.5 |
| 20260506072626 | 74 | 202 | 4.3 | 8.7 | 0.00 | 0.00 | 0.00 | 92 | 1009.4 |
| 20260506072125 | 75 | 117 | 2.6 | 7.0 | 0.00 | 0.00 | 0.00 | 92 | 1009.6 |
| 20260506071622 | 75 | 198 | 0.9 | 9.6 | 0.00 | 0.00 | 0.00 | 92 | 1009.6 |
| 20260506071120 | 75 | 156 | 7.0 | 7.0 | 0.00 | 0.00 | 0.00 | 92 | 1009.5 |
| 20260506070616 | 75 | 170 | 2.6 | 7.8 | 0.00 | 0.00 | 0.00 | 92 | 1009.5 |
| 20260506070114 | 75 | 236 | 2.6 | 9.6 | 0.00 | 0.00 | 0.00 | 92 | 1009.6 |
| 20260506062051 | 75 | 160 | 3.5 | 8.7 | 0.00 | 0.00 | 0.00 | 92 | 1009.6 |
| 20260506061546 | 75 | 209 | 0.0 | 7.0 | 0.00 | 0.00 | 0.00 | 92 | 1009.6 |
| 20260506061044 | 75 | 225 | 3.5 | 7.8 | 0.00 | 0.00 | 0.00 | 92 | 1009.4 |
| 20260506060543 | 75 | 159 | 4.3 | 8.7 | 0.00 | 0.00 | 0.00 | 92 | 1009.5 |
| 20260506051012 | 75 | 174 | 2.6 | 9.6 | 0.00 | 0.00 | 0.00 | 91 | 1009.5 |
| 20260506050509 | 75 | 192 | 3.5 | 11.3 | 0.00 | 0.00 | 0.00 | 91 | 1009.8 |
| 20260506045000 | 76 | 208 | 1.7 | 6.1 | 0.00 | 0.00 | 0.00 | 91 | 1009.8 |
| 20260506044458 | 76 | 200 | 4.3 | 7.0 | 0.00 | 0.00 | 0.00 | 91 | 1009.7 |
| 20260506043954 | 76 | 183 | 1.7 | 6.1 | 0.00 | 0.00 | 0.00 | 91 | 1009.4 |
| 20260506043451 | 75 | 191 | 2.6 | 9.6 | 0.00 | 0.00 | 0.00 | 91 | 1009.9 |
| 20260506042949 | 75 | 226 | 8.7 | 13.0 | 0.00 | 0.00 | 0.00 | 92 | 1009.5 |
| 20260506042448 | 76 | 119 | 2.6 | 8.7 | 0.00 | 0.00 | 0.00 | 92 | 1009.7 |
| 20260506041946 | 76 | 213 | 2.6 | 9.6 | 0.00 | 0.00 | 0.00 | 92 | 1009.7 |
| 20260506041444 | 76 | 140 | 3.5 | 6.1 | 0.00 | 0.00 | 0.00 | 92 | 1009.3 |
| 20260506040941 | 76 | 138 | 2.6 | 7.8 | 0.00 | 0.00 | 0.00 | 92 | 1009.6 |
| 20260506040438 | 76 | 186 | 3.5 | 3.5 | 0.00 | 0.00 | 0.00 | 91 | 1009.3 |
| 20260506035934 | 76 | 180 | 0.9 | 4.3 | 0.00 | 0.00 | 0.00 | 92 | 1009.4 |
| 20260506035432 | 76 | 179 | 4.3 | 5.2 | 0.00 | 0.00 | 0.00 | 92 | 1009.3 |
| 20260506034928 | 76 | 200 | 2.6 | 3.5 | 0.00 | 0.00 | 0.00 | 91 | 1009.2 |
| 20260506034426 | 76 | 240 | 0.0 | 4.3 | 0.00 | 0.00 | 0.00 | 91 | 1009.1 |
| 20260506033923 | 76 | 178 | 3.5 | 3.5 | 0.00 | 0.00 | 0.00 | 91 | 1009.3 |
| 20260506033420 | 76 | 225 | 4.3 | 5.2 | 0.00 | 0.00 | 0.00 | 91 | 1009.0 |
| 20260506032917 | 76 | 165 | 2.6 | 3.5 | 0.00 | 0.00 | 0.00 | 91 | 1009.0 |
| 20260506032414 | 76 | 261 | 0.0 | 2.6 | 0.00 | 0.00 | 0.00 | 91 | 1008.9 |
| 20260506031910 | 76 | 208 | 2.6 | 6.1 | 0.00 | 0.00 | 0.00 | 91 | 1008.8 |
| 20260506031408 | 76 | 255 | 0.9 | 4.3 | 0.00 | 0.00 | 0.00 | 90 | 1008.8 |
| 20260506030905 | 76 | 203 | 6.1 | 6.1 | 0.00 | 0.00 | 0.00 | 90 | 1008.7 |
| 20260506030403 | 76 | 119 | 5.2 | 5.2 | 0.00 | 0.00 | 0.00 | 90 | 1008.6 |
| 20260506025859 | 76 | 201 | 2.6 | 5.2 | 0.00 | 0.00 | 0.00 | 89 | 1008.6 |
| 20260506025356 | 77 | 262 | 0.0 | 6.1 | 0.00 | 0.00 | 0.00 | 89 | 1008.5 |
| 20260506024853 | 77 | 176 | 0.0 | 7.0 | 0.00 | 0.00 | 0.00 | 89 | 1008.5 |
| 20260506024350 | 77 | 174 | 0.9 | 6.1 | 0.00 | 0.00 | 0.00 | 89 | 1008.5 |
| 20260506023846 | 77 | 219 | 0.0 | 6.1 | 0.00 | 0.00 | 0.00 | 88 | 1008.3 |
| 20260506023343 | 77 | 180 | 2.6 | 6.1 | 0.00 | 0.00 | 0.00 | 87 | 1008.3 |
| 20260506022840 | 77 | 194 | 2.6 | 6.1 | 0.00 | 0.00 | 0.00 | 87 | 1008.2 |
| 20260506022338 | 77 | 174 | 2.6 | 4.3 | 0.00 | 0.00 | 0.00 | 87 | 1008.0 |
| 20260506021836 | 77 | 180 | 1.7 | 1.7 | 0.00 | 0.00 | 0.00 | 87 | 1008.0 |
| 20260506021332 | 77 | 187 | 0.9 | 3.5 | 0.00 | 0.00 | 0.00 | 86 | 1007.9 |
| 20260506020829 | 77 | 220 | 1.7 | 2.6 | 0.00 | 0.00 | 0.00 | 86 | 1007.6 |
| 20260506020327 | 77 | 229 | 2.6 | 6.1 | 0.00 | 0.00 | 0.00 | 86 | 1007.7 |
| 20260506015824 | 77 | 225 | 3.5 | 3.5 | 0.00 | 0.00 | 0.00 | 86 | 1007.7 |
| 20260506015321 | 78 | 173 | 0.0 | 3.5 | 0.00 | 0.00 | 0.00 | 86 | 1007.7 |
| 20260506014818 | 78 | 228 | 1.7 | 4.3 | 0.00 | 0.00 | 0.00 | 86 | 1007.6 |
| 20260506014315 | 78 | 157 | 0.0 | 4.3 | 0.00 | 0.00 | 0.00 | 86 | 1007.4 |
| 20260506013812 | 78 | 90 | 0.9 | 1.7 | 0.00 | 0.00 | 0.00 | 86 | 1007.3 |
| 20260506013309 | 78 | 212 | 0.0 | 1.7 | 0.00 | 0.00 | 0.00 | 85 | 1007.3 |
| 20260506012805 | 78 | 113 | 1.7 | 2.6 | 0.00 | 0.00 | 0.00 | 85 | 1007.2 |
| 20260506012307 | 78 | 106 | 0.0 | 1.7 | 0.00 | 0.00 | 0.00 | 85 | 1007.3 |
| 20260506011759 | 79 | 90 | 0.0 | 1.7 | 0.00 | 0.00 | 0.00 | 84 | 1007.5 |
| 20260506011256 | 79 | 165 | 0.0 | 2.6 | 0.00 | 0.00 | 0.00 | 83 | 1007.3 |
| 20260506010754 | 79 | 106 | 0.0 | 0.9 | 0.00 | 0.00 | 0.00 | 83 | 1007.5 |
| 20260506010251 | 80 | 187 | 0.9 | 1.7 | 0.00 | 0.00 | 0.00 | 82 | 1007.5 |
| 20260506005748 | 80 | 105 | 1.7 | 2.6 | 0.00 | 0.00 | 0.00 | 82 | 1007.4 |
| 20260506005245 | 80 | 246 | 0.9 | 2.6 | 0.00 | 0.00 | 0.00 | 81 | 1007.7 |
| 20260506004741 | 80 | 187 | 1.7 | 1.7 | 0.00 | 0.00 | 0.00 | 80 | 1007.6 |
| 20260506004239 | 81 | 203 | 0.0 | 1.7 | 0.00 | 0.00 | 0.00 | 80 | 1007.4 |
| 20260506003734 | 81 | 265 | 0.0 | 2.6 | 0.00 | 0.00 | 0.00 | 79 | 1007.5 |
| 20260506003231 | 81 | 155 | 2.6 | 2.6 | 0.00 | 0.00 | 0.00 | 79 | 1007.4 |
| 20260506002727 | 81 | 168 | 0.0 | 5.2 | 0.00 | 0.00 | 0.00 | 78 | 1007.3 |
| 20260506002223 | 81 | 175 | 1.7 | 2.6 | 0.00 | 0.00 | 0.00 | 78 | 1007.3 |
| 20260506001719 | 81 | 206 | 0.9 | 2.6 | 0.00 | 0.00 | 0.00 | 78 | 1007.3 |
| 20260506001217 | 82 | 194 | 0.0 | 5.2 | 0.00 | 0.00 | 0.00 | 78 | 1007.3 |
| 20260506000714 | 82 | 127 | 0.0 | 3.5 | 0.00 | 0.00 | 0.00 | 78 | 1007.4 |
| 20260506000212 | 82 | 253 | 1.7 | 3.5 | 0.00 | 0.00 | 0.00 | 78 | 1007.2 |
| 20260505235709 | 82 | 160 | 0.9 | 3.5 | 0.00 | 0.00 | 0.00 | 77 | 1007.3 |
| 20260505235206 | 82 | 150 | 2.6 | 4.3 | 0.00 | 0.00 | 0.00 | 76 | 1007.2 |
| 20260505234703 | 83 | 262 | 0.0 | 3.5 | 0.00 | 0.00 | 0.00 | 76 | 1007.0 |
| 20260505234200 | 82 | 206 | 1.7 | 5.2 | 0.00 | 0.00 | 0.00 | 74 | 1007.0 |
| 20260505233656 | 83 | 157 | 0.9 | 7.0 | 0.00 | 0.00 | 0.00 | 75 | 1007.0 |
| 20260505233154 | 83 | 233 | 3.5 | 5.2 | 0.00 | 0.00 | 0.00 | 74 | 1006.7 |
| 20260505232652 | 83 | 180 | 0.0 | 6.1 | 0.00 | 0.00 | 0.00 | 74 | 1007.1 |
| 20260505232149 | 83 | 156 | 1.7 | 5.2 | 0.00 | 0.00 | 0.00 | 74 | 1006.9 |
| 20260505231646 | 82 | 180 | 0.9 | 7.8 | 0.00 | 0.00 | 0.00 | 76 | 1007.0 |
| 20260505231145 | 82 | 238 | 4.3 | 5.2 | 0.00 | 0.00 | 0.00 | 75 | 1007.0 |
| 20260505230642 | 82 | 237 | 3.5 | 9.6 | 0.00 | 0.00 | 0.00 | 74 | 1007.1 |
| 20260505230139 | 82 | 218 | 4.3 | 4.3 | 0.00 | 0.00 | 0.00 | 75 | 1006.8 |
| 20260505225635 | 82 | 219 | 6.1 | 7.0 | 0.00 | 0.00 | 0.00 | 75 | 1007.0 |
| 20260505225131 | 82 | 232 | 0.0 | 7.8 | 0.00 | 0.00 | 0.00 | 75 | 1007.0 |
| 20260505224628 | 82 | 206 | 3.5 | 7.8 | 0.00 | 0.00 | 0.00 | 75 | 1007.1 |
| 20260505224125 | 82 | 213 | 0.0 | 7.0 | 0.00 | 0.00 | 0.00 | 75 | 1007.0 |
| 20260505223623 | 82 | 214 | 3.5 | 9.6 | 0.00 | 0.00 | 0.00 | 75 | 1007.1 |
| 20260505223119 | 83 | 228 | 6.1 | 10.4 | 0.00 | 0.00 | 0.00 | 73 | 1006.9 |
| 20260505222615 | 83 | 180 | 1.7 | 5.2 | 0.00 | 0.00 | 0.00 | 73 | 1007.0 |
| 20260505222111 | 83 | 230 | 4.3 | 8.7 | 0.00 | 0.00 | 0.00 | 73 | 1006.8 |
| 20260505221608 | 83 | 265 | 0.0 | 7.0 | 0.00 | 0.00 | 0.00 | 73 | 1006.8 |
| 20260505221105 | 84 | 184 | 3.5 | 9.6 | 0.00 | 0.00 | 0.00 | 71 | 1006.7 |
| 20260505220602 | 84 | 203 | 6.1 | 9.6 | 0.00 | 0.00 | 0.00 | 71 | 1006.8 |
| 20260505220100 | 84 | 188 | 0.9 | 7.8 | 0.00 | 0.00 | 0.00 | 72 | 1007.0 |
| 20260505215558 | 83 | 211 | 5.2 | 5.2 | 0.00 | 0.00 | 0.00 | 72 | 1007.2 |
| 20260505215055 | 84 | 237 | 4.3 | 8.7 | 0.00 | 0.00 | 0.00 | 72 | 1007.1 |
| 20260505214554 | 84 | 202 | 0.0 | 7.8 | 0.00 | 0.00 | 0.00 | 71 | 1007.0 |
| 20260505214050 | 84 | 221 | 5.2 | 6.1 | 0.00 | 0.00 | 0.00 | 72 | 1007.3 |
| 20260505213548 | 84 | 185 | 1.7 | 6.1 | 0.00 | 0.00 | 0.00 | 70 | 1007.4 |
| 20260505213044 | 84 | 157 | 2.6 | 8.7 | 0.00 | 0.00 | 0.00 | 71 | 1007.4 |
| 20260505212540 | 84 | 220 | 0.0 | 8.7 | 0.00 | 0.00 | 0.00 | 73 | 1007.4 |
| 20260505212038 | 85 | 202 | 7.0 | 9.6 | 0.00 | 0.00 | 0.00 | 69 | 1007.4 |
| 20260505211535 | 84 | 262 | 0.0 | 7.8 | 0.00 | 0.00 | 0.00 | 73 | 1007.4 |
| 20260505211031 | 84 | 203 | 6.1 | 9.6 | 0.00 | 0.00 | 0.00 | 70 | 1007.5 |
| 20260505210528 | 84 | 208 | 3.5 | 8.7 | 0.00 | 0.00 | 0.00 | 70 | 1007.4 |
| 20260505210026 | 84 | 180 | 4.3 | 7.0 | 0.00 | 0.00 | 0.00 | 73 | 1007.6 |
| 20260505205523 | 84 | 180 | 0.9 | 9.6 | 0.00 | 0.00 | 0.00 | 74 | 1008.0 |
| 20260505205020 | 83 | 151 | 2.6 | 8.7 | 0.00 | 0.00 | 0.00 | 73 | 1007.9 |
| 20260505204518 | 85 | 255 | 0.9 | 10.4 | 0.00 | 0.00 | 0.00 | 71 | 1007.9 |
| 20260505204015 | 84 | 235 | 4.3 | 11.3 | 0.00 | 0.00 | 0.00 | 73 | 1008.3 |
| 20260505203511 | 84 | 292 | 1.7 | 5.2 | 0.00 | 0.00 | 0.00 | 73 | 1008.1 |
| 20260505203008 | 84 | 226 | 5.2 | 9.6 | 0.00 | 0.00 | 0.00 | 71 | 1008.3 |
| 20260505202505 | 84 | 191 | 5.2 | 6.1 | 0.00 | 0.00 | 0.00 | 72 | 1008.5 |
| 20260505202000 | 85 | 194 | 4.3 | 7.8 | 0.00 | 0.00 | 0.00 | 74 | 1008.3 |
| 20260505201458 | 83 | 225 | 4.3 | 7.8 | 0.00 | 0.00 | 0.00 | 74 | 1008.5 |
| 20260505200955 | 83 | 173 | 1.7 | 7.8 | 0.00 | 0.00 | 0.00 | 74 | 1008.7 |
| 20260505200453 | 82 | 270 | 1.7 | 7.0 | 0.00 | 0.00 | 0.00 | 73 | 1008.6 |
| 20260505195948 | 83 | 205 | 3.5 | 5.2 | 0.00 | 0.00 | 0.00 | 72 | 1008.6 |
| 20260505195446 | 83 | 149 | 2.6 | 6.1 | 0.00 | 0.00 | 0.00 | 73 | 1008.6 |
| 20260505194943 | 83 | 157 | 0.9 | 10.4 | 0.00 | 0.00 | 0.00 | 73 | 1008.7 |
| 20260505194441 | 82 | 217 | 7.0 | 13.9 | 0.00 | 0.00 | 0.00 | 73 | 1008.7 |
| 20260505193940 | 83 | 101 | 1.7 | 7.0 | 0.00 | 0.00 | 0.00 | 74 | 1008.8 |
| 20260505193438 | 83 | 215 | 6.1 | 6.1 | 0.00 | 0.00 | 0.00 | 73 | 1008.9 |
| 20260505192936 | 82 | 225 | 3.5 | 7.8 | 0.00 | 0.00 | 0.00 | 74 | 1008.9 |
| 20260505192434 | 84 | 240 | 0.9 | 11.3 | 0.00 | 0.00 | 0.00 | 75 | 1008.7 |
| 20260505191931 | 83 | 212 | 2.6 | 10.4 | 0.00 | 0.00 | 0.00 | 74 | 1008.9 |
| 20260505191430 | 83 | 174 | 3.5 | 6.1 | 0.00 | 0.00 | 0.00 | 73 | 1009.0 |
| 20260505190926 | 83 | 125 | 2.6 | 4.3 | 0.00 | 0.00 | 0.00 | 72 | 1009.1 |
| 20260505190421 | 82 | 253 | 2.6 | 6.1 | 0.00 | 0.00 | 0.00 | 75 | 1008.9 |
| 20260505185917 | 82 | 210 | 1.7 | 6.1 | 0.00 | 0.00 | 0.00 | 75 | 1009.1 |
| 20260505185414 | 81 | 246 | 3.5 | 7.8 | 0.00 | 0.00 | 0.00 | 77 | 1009.1 |
| 20260505184910 | 81 | 249 | 3.5 | 7.8 | 0.00 | 0.00 | 0.00 | 77 | 1009.3 |
| 20260505184407 | 80 | 236 | 7.0 | 10.4 | 0.00 | 0.00 | 0.00 | 76 | 1009.3 |
| 20260505183904 | 81 | 169 | 2.6 | 13.0 | 0.00 | 0.00 | 0.00 | 78 | 1009.2 |
| 20260505183401 | 80 | 237 | 2.6 | 5.2 | 0.00 | 0.00 | 0.00 | 79 | 1009.3 |
| 20260505182858 | 80 | 222 | 2.6 | 7.8 | 0.00 | 0.00 | 0.00 | 78 | 1009.3 |
| 20260505182355 | 80 | 296 | 2.6 | 5.2 | 0.00 | 0.00 | 0.00 | 78 | 1009.5 |
| 20260505181851 | 79 | 192 | 4.3 | 12.2 | 0.00 | 0.00 | 0.00 | 78 | 1009.6 |
| 20260505181349 | 79 | 242 | 7.0 | 7.8 | 0.00 | 0.00 | 0.00 | 79 | 1009.5 |
| 20260505180845 | 79 | 218 | 4.3 | 9.6 | 0.00 | 0.00 | 0.00 | 80 | 1009.5 |
| 20260505180341 | 78 | 203 | 6.1 | 8.7 | 0.00 | 0.00 | 0.00 | 79 | 1010.0 |
| 20260505175838 | 78 | 212 | 2.6 | 7.0 | 0.00 | 0.00 | 0.00 | 82 | 1009.7 |
| 20260505175334 | 77 | 183 | 2.6 | 8.7 | 0.00 | 0.00 | 0.00 | 82 | 1009.6 |
| 20260505174831 | 77 | 180 | 0.0 | 9.6 | 0.00 | 0.00 | 0.00 | 83 | 1010.0 |
| 20260505174329 | 77 | 215 | 3.5 | 6.1 | 0.00 | 0.00 | 0.00 | 83 | 1009.9 |
| 20260505173824 | 77 | 219 | 3.5 | 5.2 | 0.00 | 0.00 | 0.00 | 84 | 1009.8 |
| 20260505173321 | 76 | 223 | 3.5 | 9.6 | 0.00 | 0.00 | 0.00 | 85 | 1010.2 |
| 20260505172819 | 76 | 230 | 2.6 | 4.3 | 0.00 | 0.00 | 0.00 | 85 | 1010.3 |
| 20260505172316 | 76 | 201 | 1.7 | 2.6 | 0.00 | 0.00 | 0.00 | 86 | 1010.2 |
| 20260505171815 | 75 | 231 | 4.3 | 7.8 | 0.00 | 0.00 | 0.00 | 87 | 1010.2 |
| 20260505171313 | 75 | 231 | 5.2 | 8.7 | 0.00 | 0.00 | 0.00 | 87 | 1010.0 |
| 20260505170809 | 75 | 216 | 1.7 | 3.5 | 0.00 | 0.00 | 0.00 | 86 | 1010.3 |
| 20260505170306 | 74 | 180 | 0.9 | 7.8 | 0.00 | 0.00 | 0.00 | 88 | 1010.2 |
| 20260505165801 | 74 | 233 | 1.7 | 9.6 | 0.00 | 0.00 | 0.00 | 88 | 1010.4 |
| 20260505165257 | 74 | 242 | 2.6 | 6.1 | 0.00 | 0.00 | 0.00 | 88 | 1010.2 |
| 20260505164753 | 74 | 207 | 2.6 | 10.4 | 0.00 | 0.00 | 0.00 | 88 | 1010.3 |
| 20260505164250 | 73 | 212 | 4.3 | 7.8 | 0.00 | 0.00 | 0.00 | 88 | 1010.0 |
| 20260505163749 | 73 | 212 | 4.3 | 7.0 | 0.00 | 0.00 | 0.00 | 88 | 1010.0 |
| 20260505163247 | 73 | 222 | 7.8 | 9.6 | 0.00 | 0.00 | 0.00 | 89 | 1010.3 |
| 20260505162744 | 73 | 210 | 3.5 | 5.2 | 0.00 | 0.00 | 0.00 | 89 | 1009.9 |
| 20260505162241 | 73 | 233 | 2.6 | 6.1 | 0.00 | 0.00 | 0.00 | 90 | 1010.2 |
| 20260505161738 | 72 | 187 | 1.7 | 4.3 | 0.00 | 0.00 | 0.00 | 90 | 1010.3 |
| 20260505161235 | 72 | 202 | 4.3 | 6.1 | 0.00 | 0.00 | 0.00 | 90 | 1010.5 |
| 20260505160732 | 72 | 231 | 4.3 | 5.2 | 0.00 | 0.00 | 0.00 | 91 | 1010.3 |
| 20260505160230 | 72 | 204 | 6.1 | 9.6 | 0.00 | 0.00 | 0.00 | 90 | 1010.5 |
| 20260505153209 | 72 | 237 | 1.7 | 3.5 | 0.00 | 0.00 | 0.00 | 92 | 1010.3 |
| 20260505152706 | 71 | 221 | 3.5 | 9.6 | 0.00 | 0.00 | 0.00 | 92 | 1010.2 |
| 20260505152202 | 71 | 219 | 6.1 | 7.8 | 0.00 | 0.00 | 0.00 | 92 | 1010.0 |
| 20260505151657 | 71 | 208 | 2.6 | 8.7 | 0.00 | 0.00 | 0.00 | 93 | 1010.0 |